#timestamp,LO_Frequency,Hit,StdDev 
1554696015.4,286047000.4,P
1554696035.2,286046999.7,N
1554696055.1,286046999.9,N
1554696056.0,286046999.9,N
1554696075.8,286046999.9,N
1554696095.6,286046999.9,N
1554696115.5,286047000.2,N
1554696135.3,286047000.2,N
1554696155.2,286047002.6,Y
1554696175.9,286046999.8,P
1554696195.7,286047002.8,P
1554696215.6,286047002.1,N
1554696235.4,286047002.7,N
1554696255.2,286047002.3,N
1554696275.1,286047002.3,N
1554696276.0,286047002.3,N
1554696295.8,286047002.6,N
1554696315.7,286047002.1,N
1554696335.5,286047002.1,N
1554696355.3,286047002.5,N
1554696375.2,286047002.2,N
1554696395.0,286047002.5,N
1554696395.9,286047002.5,N
1554696415.8,286047002.5,N
1554696435.6,286047002.5,Y
1554696455.4,286047001.2,P
1554696475.3,286046998.1,P
1554696495.1,286046998.5,N
1554696515.8,286046998.1,N
1554696535.7,286047001.0,N
1554696555.5,286047001.2,N
1554696575.4,286046998.1,N
1554696595.2,286047001.1,N
1554696615.0,286047000.6,N
1554696615.9,286047000.6,N
1554696635.8,286047001.1,N
1554696655.6,286047001.1,N
1554696675.4,286047000.5,N
1554696695.3,286047000.8,N
1554696715.1,286047001.2,N
1554696735.9,286047001.2,N
1554696755.7,286047000.9,N
1554696775.5,286047001.1,N
1554696795.4,286047001.1,N
1554696815.2,286047000.9,N
1554696835.0,286047000.6,N
1554696835.9,286047000.6,N
1554696855.8,286047001.2,N
1554696875.6,286047000.8,N
1554696895.5,286047000.8,N
1554696915.3,286047000.7,N
1554696935.1,286047000.8,N
1554696955.9,286047000.0,N
1554696975.7,286047000.6,N
1554696995.6,286046999.7,N
1554697015.4,286047002.8,N
1554697035.2,286047000.0,N
1554697055.1,286047000.0,N
1554697056.0,286047000.0,N
1554697075.8,286047000.0,N
1554697095.6,286046999.7,N
1554697115.5,286047002.8,Y
1554697135.3,286046999.8,P
1554697155.2,286047002.8,P
1554697175.0,286047002.4,N
1554697175.9,286047002.4,N
1554697195.7,286047002.3,N
1554697215.6,286046999.7,N
1554697235.4,286047002.3,N
1554697255.3,286047002.4,N
1554697275.1,286047000.2,N
1554697276.0,286047000.2,N
1554697295.8,286046999.7,N
1554697315.7,286047002.4,N
1554697335.5,286047002.6,N
1554697355.3,286047002.5,N
1554697375.2,286047002.1,N
1554697395.0,286047002.1,N
1554697395.9,286047002.1,N
1554697415.8,286047001.3,N
1554697435.6,286047002.0,N
1554697455.4,286047002.1,N
1554697475.3,286047001.3,N
1554697495.1,286047001.5,N
1554697515.9,286047001.6,N
1554697535.7,286047001.5,N
1554697555.5,286047001.8,N
1554697575.4,286047001.4,N
1554697595.2,286047004.0,Y
1554697615.0,286047002.4,P
1554697615.9,286047002.4,P
1554697635.8,286047002.4,P
1554697655.6,286047002.6,Y
1554697675.5,286046998.5,P
1554697695.3,286046998.1,N
1554697715.1,286046998.2,N
1554697735.9,286046998.2,N
1554697755.7,286046998.1,N
1554697775.6,286046998.1,N
1554697795.4,286046998.2,N
1554697815.2,286047001.2,N
1554697835.1,286046998.1,N
1554697836.0,286046998.1,N
1554697855.8,286047001.2,N
1554697875.6,286046998.1,N
1554697895.5,286046998.1,N
1554697915.3,286046998.1,N
1554697935.2,286046998.1,N
1554697955.9,286047001.2,N
1554697975.7,286046998.1,N
1554697995.6,286046998.1,N
1554698015.4,286047001.2,N
1554698035.2,286047001.1,N
1554698055.1,286047001.2,N
1554698056.0,286047001.2,N
1554698075.8,286047000.4,N
1554698095.7,286047000.8,N
1554698115.5,286047000.7,N
1554698135.3,286047000.9,N
1554698155.2,286047000.9,N
1554698175.0,286047000.6,N
1554698175.9,286047000.6,N
1554698195.8,286047000.6,N
1554698215.6,286046999.9,N
1554698235.4,286046999.9,N
1554698255.3,286046999.8,N
1554698275.1,286046999.8,N
1554698295.8,286046999.8,N
1554698315.7,286047000.1,N
1554698335.5,286046999.7,N
1554698355.4,286047000.2,N
1554698375.2,286046999.7,N
1554698395.0,286046999.7,N
1554698395.9,286046999.7,N
1554698415.8,286046999.7,N
1554698435.6,286047002.8,N
1554698455.5,286047000.2,N
1554698475.3,286047002.4,N
1554698495.1,286047002.6,N
1554698515.9,286047001.9,N
1554698535.7,286047002.6,N
1554698555.5,286047002.6,N
1554698575.4,286047002.6,N
1554698595.2,286047002.3,N
1554698615.1,286047002.6,N
1554698616.0,286047002.6,N
1554698635.8,286047002.2,N
1554698655.6,286047002.2,N
1554698675.5,286047001.8,N
1554698695.3,286047002.1,N
1554698715.1,286047002.0,N
1554698735.9,286047001.9,N
1554698755.7,286047002.0,N
1554698775.6,286047002.0,N
1554698795.4,286047002.0,N
1554698815.2,286047002.0,N
1554698835.1,286047001.4,N
1554698836.0,286047001.4,N
1554698855.8,286047002.1,N
1554698875.6,286047002.1,N
1554698895.5,286047002.1,N
1554698915.3,286047002.0,N
1554698935.2,286047002.0,N
1554698955.9,286047001.9,N
1554698975.7,286047002.0,Y
1554698995.6,286047000.9,P
1554699015.4,286047000.7,N
1554699035.3,286047000.7,N
1554699055.1,286047001.0,N
1554699056.0,286047001.0,N
1554699075.8,286047000.5,N
1554699095.7,286047000.3,N
1554699115.5,286047000.3,N
1554699135.3,286047000.5,N
1554699155.2,286047000.0,N
1554699175.0,286047000.3,N
1554699175.9,286047000.3,N
1554699195.8,286047000.6,N
1554699215.6,286047000.4,N
1554699235.4,286047000.6,N
1554699255.3,286047000.3,N
1554699275.1,286047000.3,N
1554699295.9,286047000.0,N
1554699315.7,286047000.7,N
1554699335.5,286047000.6,N
1554699355.4,286047000.5,N
1554699375.2,286047000.0,N
1554699395.0,286047000.2,N
1554699395.9,286047000.2,N
1554699415.8,286047000.5,N
1554699435.6,286046999.8,N
1554699455.5,286047000.1,N
1554699475.3,286047000.6,N
1554699495.1,286047000.2,N
1554699515.9,286047000.2,N
1554699535.7,286047000.6,N
1554699555.5,286047000.2,N
1554699575.4,286047000.9,Y
1554699595.2,286047000.3,P
